Terminal Aerodrome Forecast
Issued by NWS

Home | Current Version | Previous Version | Graphics & Text | Print | Product List | Glossary On
Versions: 1 2 3 4 5 6 7 8 9 10 11 12 13 14 15 16 17 18 19
003
FTUS43 KBIS 092339
TAFMOT
TAF
KMOT 092339Z 1000/1024 34008KT P6SM SCT060 OVC080
     FM100300 11008KT P6SM -SN OVC045
     FM100500 12008KT 2SM -SN BR OVC012
     FM101100 13008KT 4SM -SN BR OVC015
     FM101400 08007KT 5SM BR OVC008
     FM101900 32009KT P6SM OVC015=

USA.gov is the U.S. government's official web portal to all federal, state and local government web resources and services.